Timeline UpdatesTrip UpdatesNews PostsPvt PostsTravel TipsAdmin PostsConv PostsFollowed PostsChat RequestsBlog PostsPNR Posts

Disclaimer
Search
 
 
Fri Apr 25, 2014 12:15:13 ISTHomeTrainsΣChainsAtlasPNRForumGalleryNewsFAQTripsMembersLoginFeedback
No Recent News for this Train
Other Trains in the News **new
Latest...
The 15273/15274 Delhi Jn-Raxaul Jn- Delhi Jn Satyagrah Express Train has been augmented by o­ne Additional Sleeper Class Coach (total 21 coaches) with immediate effect when departing from both sides.
Tue May 21, 2013 (01:00PM)
⇐ Return Journey: Train# 15273

15274/Satyagraha Express

Nov 06 2013 (10:32PM)
Change Departure Station:
Change Arrival Station:
Post a Train Travel TipPost a Train Travel Tip **new
Post a Comment/Question/Picture/VideoPost a Comment/Question/Picture/Video
Pantry/Catering
✕ NO Pantry Car
✓ Catering Avbl
No dedicated official catering.
RSA - Rake Sharing
Rake/Coach Composition
SLR-GN-GN-GN-GN-GN-GN-B1-B2-S1-S2-S3-S4-S5-GN-GN-GN-GN-GN-GN-SLR-LOCO
Loco
WDM - 3A TKD
News    PNR    Forum    Time-Table    Availability    Fare Chart    Map    Arr/Dep History    Trips    Gallery    ΣChains    X/O    Timeline    
Travel Time: 23h 30m    45 halts    Distance: 962 km    Avg Speed: 40 km/hr
Type: Mail/Express
Zone: ECR/East Central
Departs @ 17:15 (Avg 3m late)
Platform# 12
SMTWTFS
Old Delhi Junction/DLI 
Arrives @ 16:45 +1 night (Avg 49m late)
Platform# ???
SMTWTFS
Raxaul Junction/RXL 

45 halts. 158 intermediate Stations between Old Delhi Junction and Raxaul Junction

Show ALL intermediate Stations  Show Old Time-Table

#CodeStation NameX/OArrivesAvgDepartsAvgHaltPFDay#KmSpeedElevZoneAddress
1DLI»Old Delhi Junction (16)»  -17:15+31210.021219mNRNear Chandni Chowk Metro Station, Delhi NCT
2DSAShahdara Junction (4)  17:33+417:35+42m216.352212mNRCircular Rd, Delhi NCT
3SBBSahibabad Junction (5)X  17:43+517:45+52m1113.220209mNRGhaziabad, Uttar Pradesh
4GZBGhaziabad Junction (6)  18:05+018:08+13m1119.961217mNRGhaziabad, Uttar Pradesh
5PKWPilkhua (3)  18:33+2018:35+232m--145.539218mNRPilkhuwa, Uttar Pradesh
6HPUHapur Junction (4)  18:52+2018:54+212m--156.685214mNRHapur Jn., Uttar Pradesh
7GMSGarhmuktesar (3)X  19:15+2719:17+302m1186.460218mNRGarhmukteshwar, Uttar Pradesh
8GJLGajraula Junction (3)  19:38+3519:40+362m11107.368211mNRGujraula, Uttar Pradesh
9AMROAmroha (3)  20:00+3620:02+392m11130.138217mNRAmroha, Uttar Pradesh
10MBMoradabad Junction (7)X  20:50+2921:00+3410m11160.651201mNRMoradabad, Uttar Pradesh
11RMURampur Junction (3)XO  21:32+3921:34+412m--1187.926190mNRRampur, Uttar Pradesh
12MILMilak  22:27+1422:29+152m--1211.041180mNRMilak, Uttar Pradesh
13BEBareilly Junction (4)X  23:27+1323:35+148m11250.973174mNRBareilly, Uttar Pradesh
14BLPUBilpurX  00:04+2300:06+232m--2286.450161mNRFatehganj, Uttar Pradesh
15SPNShahjahanpur Junction (3)XO  00:48+1700:53+175m--2321.455156mNRShahjahanpur, Uttar Pradesh
16ROZARoza Junction (4)  01:01+1901:03+202m--2328.756156mNRShahjahanpur, Uttar Pradesh
17SPCSitapur City Junction  02:28+1302:38+1110m--2408.010140mNRSitapur, Uttar Pradesh
18SCCSitapur Cantt. (2)  03:02+703:10+88m--2412.269141mNRSitapur, Uttar Pradesh
19BVNBiswan  03:40+2103:42+212m--2446.773133mNERBiswan, Uttar Pradesh
20MMBMahmudabad Avadh  04:03+2504:05+262m--2472.364131mNERMahmudabad, Uttar Pradesh
21TSFTahsil Fatehpur  04:20+2704:22+282m--2488.239124mNERFatehpur, Uttar Pradesh
22BUWBurhwal Junction (3)X  04:55+1705:00+195m--2509.754119mNERBarabanki, Uttar Pradesh
23JLDJarwal Road (2)X  05:18+2105:20+242m--2525.857112mNERBehraich, Uttar Pradesh
24CLJColonelGanj (2)X  05:38+3205:40+332m22543.035108mNERGonda, Uttar Pradesh
25GDGonda Junction (3)X  06:30+2106:35+285m22572.073110mNERGonda 271001, Uttar Pradesh
26MURMankapur Junction (5)  06:58+3307:00+332m--2599.865104mNERDistrict Gonda, Uttar Pradesh
27MSWMaskanwa (2)  07:13+3407:15+362m--2613.9-103mNERChhapaiya Rd, Uttar Pradesh
28BVBabhnan (2)X  07:20+4707:22+482m22629.649101mNERDistrict- Basti, Uttar Pradesh
29BSTBasti (4)  08:00+4008:05+415m--2660.46390mNERBasti 272001, Uttar Pradesh
30KLDKhalilabad (3)X  08:33+4008:35+402m--2689.92086mNERKhalilabad- 272175, Uttar Pradesh
31GKPGorakhpur Junction (10)  10:15+510:25+1410m--2723.83784mNERGorakhpur 273001, Uttar Pradesh
32PPCPipraich  10:56+2310:58+252m--2742.83185mNERGorakhpur Bypass, Uttar Pradesh
33CPJKaptanganj JunctionX  11:36+1011:41+125m--2762.55689mNERCaptainganj, Uttar Pradesh
34GHGhughuli  11:57+1211:59+132m--2777.45892mNERGhughli Bazar, Uttar Pradesh
35SBZSiswa BazarX  12:11+1412:13+162m--2789.04194mNERSiswa Bazar, Uttar Pradesh
36KZAKhada12:34+1012:36+122m--2803.32498mNERKhadda Katai Bharpurva Bandh, Uttar Pradesh
37PNYAPaniahwa (2)X  12:53+512:55+132m--2809.94696mNERPaniyahawa Railway Station, Uttar Pradesh
38BUGBagaha (2)  13:24+3213:26+332m--2832.27593mECRBagaha, Bihar
39BRUBhairoganj  13:40+4313:42+442m--2849.749100mECRBhairoganj, Bihar
40HIRHarinagar  13:52+4713:54+502m--2857.83697mECRRamnagar, Bihar
41NKENarkatiaganj Junction (3)  14:20+4614:25+485m--2873.35789mECRNarkatiaganj, Bihar
42CAIChanpatiaX  14:46+5014:48+522m--2893.25180mECRSikta-Mainatad Rd, Bihar
43BTHBettiah (2)  15:08+5415:10+572m--2910.06679mECRBettiah, Bihar
44MJLMajhowlia  15:19+1:0015:21+1:042m--2919.94676mECRVikash Village, Bihar
45SGLSagauli (3)  15:38+1:0215:40+1:082m--2932.85073mECRSugauli, Bihar
46RGHRamgarhwa (1)X  15:58+1:0716:00+1:112m12947.81975mECRRamgarhwa, Bihar
47RXL•Raxaul Junction (5)•  16:45+49---2962.0-88mECREast Champaran, Bihar
Scroll to Top
Scroll to Bottom